sat.trackr.live / text

‹ back to catalog

2024-199AU

NORAD 61777 · 2024-199AU

PAYLOAD ACTIVE UNKNOWN

§ Identity

Operator
Country
TBD
Launch date
2024-11-04
Launch site
VOSTO
Launch vehicle
Mass (kg)
RCS (m²)

External: N2YO · Heavens-Above · Gunter

§ Orbital elements

Epoch: 2026-09-22T21:42:10.773504Z

Period
92.98 min
Inclination
97.2815°
Eccentricity
0.0011441
Mean motion
15.48795481 rev/d
Perigee alt
412.5 km
Apogee alt
428.0 km
Semi-major
6,798.4 km
B*
2.6956e-4
RAAN
139.1518°
Arg perigee
281.3298°
Mean anomaly
78.6667°
Rev number
14,929

§ Raw data

2024-199AU1 61777U 24199AU  26265.90429136  .00014432  00000+0  26956-3 0  99922 61777  97.2815 139.1518 0011441 281.3298  78.6667 15.48795481149291

JSON: /api/v1/satellites/61777 · /tle

For live sub-satellite position, see the globe view (requires WebGL).

§ Visibility from observer

Set your observer location to see the next 7 days of passes ≥ 10°. The values pass through the URL so the page stays shareable.

No JS? Fill the form by hand. The geolocation button needs JavaScript.